Location: Lido
(41.7329°N, 12.2875°E)
Time: 12:21:46
(UTC+01:00)

ISS - Visible Passes

Search period start: 21 January 2021 00:00
Search period end: 31 January 2021 00:00
Orbit: 418 x 419 km, 51.6° (Epoch: 21 January)

Date Brightness Start Highest point End Pass type
(mag) Time Alt. Az. Time Alt. Az. Time Alt. Az.
21 Jan -3.6 17:53:03 10° SW 17:56:23 63° SE 17:59:24 12° ENE visible
21 Jan -1.4 19:30:33 10° WNW 19:32:21 21° NW 19:32:21 21° NW visible
22 Jan -2.5 18:42:25 10° W 18:45:31 33° NNW 18:46:41 25° NNE visible
23 Jan -3.1 17:54:24 10° WSW 17:57:40 48° NNW 18:00:58 10° NE visible
23 Jan -1.0 19:32:44 10° NW 19:33:55 15° NW 19:33:55 15° NW visible
24 Jan -1.8 18:44:30 10° WNW 18:47:05 20° NNW 18:48:08 18° N visible
25 Jan -2.1 17:56:17 10° WNW 17:59:08 25° NNW 18:02:00 10° NE visible
25 Jan -0.9 19:34:43 10° NW 19:35:17 12° NNW 19:35:17 12° NNW visible
26 Jan -1.6 18:46:36 10° NW 18:48:45 16° N 18:49:27 15° N visible
27 Jan -1.6 17:58:22 10° NW 18:00:43 17° N 18:03:03 10° NNE visible
27 Jan -0.8 19:36:09 10° NNW 19:36:33 12° NNW 19:36:33 12° NNW visible
28 Jan -1.6 18:48:17 10° NW 18:50:25 15° N 18:50:43 15° NNE visible
29 Jan -1.5 18:00:17 10° NW 18:02:20 15° N 18:04:24 10° NE visible
29 Jan -1.0 19:37:11 10° NW 19:37:51 14° NNW 19:37:51 14° NNW visible
30 Jan -2.0 18:49:27 10° NW 18:51:59 19° NNE 18:52:04 19° NNE visible
